This is the latest recevied weather packets stored in our database for station/object KI6PPU. If no packets are shown the sender has not sent any weather packets the latest 10 day(s).
| Time | Temp. | Humidity | Pressure | Rain* | Wind** | Luminosity | Snow |
|---|---|---|---|---|---|---|---|
| 1777737875 | 17.22° C | 81% | 1014.9 hPa | 0 mm | - | 322 W/m² | - |
| 1777737574 | 16.67° C | 84% | 1014.9 hPa | 0 mm | - | 254 W/m² | - |
| 1777737272 | 16.11° C | 84% | 1014.8 hPa | 0 mm | - | 240 W/m² | - |
| 1777736967 | 15.56° C | 85% | 1014.8 hPa | 0 mm | - | 221 W/m² | - |
| 1777736061 | 15° C | 87% | 1014.8 hPa | 0 mm | - | 185 W/m² | - |
| 1777735758 | 15° C | 87% | 1014.9 hPa | 0 mm | - | 158 W/m² | - |
| 1777735455 | 15° C | 88% | 1014.9 hPa | 0 mm | - | 158 W/m² | - |
| 1777735153 | 15° C | 89% | 1014.8 hPa | 0 mm | - | 147 W/m² | - |
| 1777734849 | 14.44° C | 89% | 1015 hPa | 0 mm | - | 119 W/m² | - |
| 1777734547 | 14.44° C | 90% | 1015 hPa | 0 mm | - | 132 W/m² | - |
| 1777734243 | 13.89° C | 91% | 1015 hPa | 0 mm | - | 113 W/m² | - |
| 1777733940 | 13.89° C | 92% | 1014.9 hPa | 0 mm | - | 105 W/m² | - |
| 1777733636 | 13.89° C | 92% | 1015 hPa | 0 mm | - | 105 W/m² | - |
| 1777733333 | 13.33° C | 93% | 1014.7 hPa | 0 mm | - | 103 W/m² | - |
| 1777733030 | 12.78° C | 93% | 1014.5 hPa | 0 mm | - | 91 W/m² | - |
| 1777732726 | 13.33° C | 93% | 1014.8 hPa | 0 mm | - | 81 W/m² | - |
| 1777732423 | 12.78° C | 94% | 1014.8 hPa | 0 mm | - | 73 W/m² | - |
| 1777732121 | 12.78° C | 94% | 1014.7 hPa | 0 mm | - | 69 W/m² | - |
| 1777731817 | 12.78° C | 95% | 1014.9 hPa | 0 mm | - | 73 W/m² | - |
| 1777731514 | 12.22° C | 96% | 1014.8 hPa | 0 mm | - | 66 W/m² | - |
| 1777731213 | 12.22° C | 96% | 1014.6 hPa | 0 mm | - | 59 W/m² | - |
| 1777730910 | 11.67° C | 96% | 1014.5 hPa | 0 mm | - | 55 W/m² | - |
| 1777730607 | 11.67° C | 96% | 1014.6 hPa | 0 mm | - | 51 W/m² | - |
| 1777730303 | 11.67° C | 96% | 1014.4 hPa | 0 mm | - | 46 W/m² | - |
| 1777730000 | 11.67° C | 97% | 1014.5 hPa | 0 mm | - | 37 W/m² | - |
* Rain latest hour (hover to see other rain measurements)
** Current wind speed in m/s (hover to see current wind gust speed)